SCP
0 0 0 0 0 0 0 0 0 0 0 0 0 0 0 0 0 0 0 0 0 0 0 0 0 0 0 0 0 0 0 0 0 0 0 0 0 0 0 0 0 0 0 0
0 0 0 0 0 0 0 0 0 0 0 0 0 0 0 0 0 0 0 0 0 0 0 0 0 0 0 0 0 0 0 0 0 0 0 0 0 0 0 0 0 0 0 0
0 0 0 0 0 0 0 0 0 0 0 0 0 0 0 0 0 0 0 0 0 0 0 0 0 0 0 0 0 1 0 0 0 0 0 0 0 0 0 0 0 0 0 0
0 0 0 0 0 0 0 0 0 0 0 0 0 0 0 0 0 0 0 0 0 0 0 0 0 0 0 0 1 1 1 0 0 0 0 0 0 0 0 0 0 0 0 0
0 0 0 0 0 0 0 0 0 0 0 0 0 0 0 0 0 0 0 0 0 0 0 0 0 0 1 1 1 1 1 0 0 0 0 0 0 0 0 0 0 0 0 0
0 0 0 0 0 0 0 0 0 0 0 0 0 0 0 0 0 0 0 0 0 0 0 0 1 1 1 1 1 1 1 0 0 0 0 0 0 0 0 0 0 0 0 0
0 0 0 0 0 0 0 0 0 0 0 0 0 0 0 0 0 0 0 0 0 0 1 1 1 1 1 1 1 1 1 0 0 0 0 0 0 0 0 0 0 0 0 0
0 0 0 0 0 0 0 0 0 0 0 0 0 0 0 0 0 0 0 0 0 0 1 1 1 1 1 1 1 1 0 0 0 0 0 0 0 0 0 0 0 0 0 0
0 0 0 0 0 0 0 0 0 0 0 0 0 0 0 0 0 0 0 0 0 0 0 1 1 0 1 1 1 1 0 0 0 0 0 0 0 0 0 0 0 0 0 0
0 0 0 0 0 0 0 0 0 0 0 0 0 0 0 0 0 0 0 0 0 0 0 0 0 0 1 1 1 1 0 0 0 0 0 0 0 0 0 0 0 0 0 0
0 0 0 0 0 0 0 0 0 0 0 0 0 0 0 0 0 0 0 0 0 0 0 1 1 1 1 1 1 1 1 0 0 0 0 0 0 0 0 0 0 0 0 0
0 0 0 0 0 0 0 0 0 0 0 0 0 0 0 0 0 0 0 0 0 0 1 1 1 1 1 1 1 1 1 0 0 0 0 0 0 0 0 0 0 0 0 0
0 0 0 0 0 0 0 0 0 0 0 0 0 0 0 0 0 0 0 0 0 1 1 1 1 1 1 1 1 1 1 1 0 0 0 0 0 0 0 0 0 0 0 0
0 0 0 0 0 0 0 0 0 0 0 0 0 0 0 0 0 0 0 0 1 1 1 1 1 1 1 1 1 1 1 1 1 1 1 0 0 0 0 0 0 0 0 0
0 0 0 0 0 0 0 0 0 0 0 0 0 0 0 0 0 0 0 0 1 1 1 1 1 1 1 1 1 2 2 1 1 1 1 1 0 0 0 0 0 0 0 0
0 0 0 0 0 0 0 0 0 0 0 0 0 0 0 0 0 0 0 1 1 1 1 1 1 1 1 1 1 1 1 1 1 1 1 1 1 0 0 0 0 0 0 0
0 0 0 0 0 0 0 0 0 0 0 0 0 0 0 0 0 0 0 1 1 1 1 1 1 1 1 1 1 1 1 1 1 1 1 1 1 1 1 0 0 0 0 0
0 0 0 0 0 0 0 0 0 0 0 0 0 0 0 0 0 0 1 1 1 1 1 1 1 1 1 1 1 1 0 0 1 1 1 1 1 1 1 1 1 1 1 1
0 0 0 0 0 0 0 0 0 0 0 0 0 0 0 1 1 1 1 1 1 1 1 1 1 1 1 1 1 1 1 0 1 1 1 1 1 1 1 1 1 1 1 1
0 0 0 0 0 0 0 0 0 0 0 0 0 0 1 1 1 1 1 1 1 1 1 1 1 1 1 1 1 1 1 1 1 1 1 1 1 1 1 1 1 1 1 1
0 0 0 0 0 0 0 0 0 0 0 0 0 0 1 1 1 1 1 1 1 1 1 1 1 1 1 1 1 1 1 1 1 1 1 1 1 1 1 1 1 1 1 1
0 0 0 0 0 0 0 0 0 0 0 0 0 0 1 1 1 1 1 1 1 1 1 1 1 1 1 1 1 1 1 1 1 1 1 1 1 1 1 0 1 1 0 0
0 0 0 0 0 0 0 0 0 0 0 0 0 1 1 1 1 1 1 1 1 1 1 1 1 1 1 1 1 1 1 1 1 1 0 0 0 0 0 0 0 0 1 1
0 0 0 0 0 0 0 0 0 0 0 0 0 1 1 1 1 1 0 0 0 0 0 0 0 1 1 1 1 1 1 1 1 1 0 0 0 0 0 0 0 0 0 0
0 0 0 0 0 0 0 0 0 0 0 0 0 0 0 0 0 0 0 0 0 0 0 0 0 1 1 0 0 0 0 1 1 0 0 0 0 0 0 0 0 0 0 0
0 0 0 0 0 0 0 0 0 0 0 0 0 0 0 0 0 0 0 0 0 0 0 0 0 0 0 0 0 0 0 0 0 0 0 0 0 0 0 0 0 0 0 0
Wind_Speed
2 1 4 8 7 7 5 3 3 3 2 3 3 3 4 4 5 6 6 7 8 8 7 7 8 8 7 6 6 5 5 4 3 3 2 2 2 2 2 2 3 3 3 3
3 5 11 8 6 5 5 3 2 1 1 3 2 2 2 3 5 7 7 7 7 7 6 7 6 7 7 7 6 5 5 4 3 2 2 2 2 2 2 2 3 4 4 3
6 9 6 5 6 4 5 5 5 4 2 2 3 2 2 1 3 5 7 7 6 10 10 9 8 7 7 7 6 6 5 4 4 3 3 3 3 3 3 3 2 3 3 3
6 8 6 5 6 4 6 6 6 5 4 1 3 1 5 2 1 4 5 6 7 8 9 9 9 9 8 7 6 6 5 4 4 4 4 5 4 2 1 1 1 2 3 3
6 5 5 6 8 5 7 5 3 3 3 2 1 3 6 1 2 5 7 8 8 8 9 10 10 10 8 8 7 6 5 4 4 4 5 5 3 2 1 2 3 2 2 2
9 7 5 7 7 5 3 2 4 5 5 1 3 3 4 3 6 5 6 8 9 8 8 8 8 8 7 7 7 6 5 4 4 4 4 5 5 4 3 3 2 1 1 1
7 7 5 4 4 4 1 4 4 5 4 3 2 2 6 6 4 5 6 7 8 9 9 8 8 8 8 9 8 6 6 4 4 4 4 4 4 4 4 3 3 2 1 1
3 6 5 3 5 5 2 8 7 4 3 3 2 2 5 2 1 3 5 7 7 7 8 10 10 9 10 10 9 8 7 5 4 4 3 3 3 3 2 3 3 2 2 1
5 6 6 4 3 5 2 2 7 8 3 2 2 2 4 2 1 3 5 6 6 6 7 8 8 8 9 9 9 9 8 6 5 4 4 3 3 3 3 3 2 2 1 1
6 3 6 5 2 1 5 5 5 5 4 1 1 2 4 4 2 3 4 5 5 5 6 6 7 7 8 8 8 8 7 7 5 5 4 4 3 3 3 3 3 2 2 2
5 3 5 4 0 2 1 2 4 4 5 7 3 5 5 7 6 5 5 5 6 6 7 7 6 6 7 7 8 8 7 6 5 5 4 4 3 3 3 2 2 2 2 2
4 6 2 6 6 3 4 3 5 4 2 4 5 5 3 5 5 5 4 4 4 5 5 6 6 6 7 7 7 7 7 6 5 5 4 4 3 3 3 2 2 2 2 2
5 6 2 7 8 5 2 1 3 6 5 4 5 4 2 1 3 4 5 5 5 5 5 5 6 6 6 6 6 6 6 6 5 5 4 3 3 3 3 2 2 2 2 2
6 5 7 7 6 3 2 2 1 6 4 3 5 5 2 3 3 3 5 6 5 6 6 6 5 5 5 6 5 5 5 5 5 5 4 4 3 3 3 3 2 2 2 2
5 4 3 4 3 1 1 1 1 3 6 6 5 6 6 6 7 5 6 6 6 5 5 5 5 5 5 5 4 5 5 4 5 5 4 4 3 2 2 2 2 2 2 3
4 3 2 2 1 3 3 3 0 1 4 5 5 3 3 4 5 5 6 7 6 5 5 4 5 5 5 4 4 4 4 4 5 5 4 3 3 3 2 2 2 2 2 2
2 4 3 2 2 4 3 2 1 2 2 5 5 5 4 6 7 7 7 7 7 6 5 5 4 5 4 4 5 5 5 4 4 4 3 3 3 3 3 3 2 2 2 2
4 4 3 1 3 1 6 2 5 7 3 2 4 6 7 7 5 5 6 8 6 6 5 5 4 4 3 3 4 3 4 4 4 3 3 3 3 2 2 2 2 2 2 2
5 7 4 3 2 2 3 1 3 5 2 1 5 7 8 9 9 5 2 5 7 6 6 5 5 5 4 3 3 4 3 3 3 3 3 3 3 3 2 2 2 2 2 2
5 6 5 4 3 4 5 3 2 8 2 2 4 7 8 7 5 2 1 4 5 5 5 5 5 5 4 2 3 5 3 2 2 2 3 3 3 3 3 3 2 1 2 2
4 4 3 3 3 4 5 4 3 4 5 3 4 7 6 4 5 5 4 4 4 5 5 6 6 4 3 3 4 4 3 2 2 1 1 1 2 2 2 1 1 1 0 0
2 1 1 3 3 5 5 3 4 5 3 4 5 5 6 7 7 6 6 4 4 5 5 6 5 3 2 4 5 3 2 1 1 1 2 1 1 1 2 2 1 1 1 0
2 4 4 5 5 5 0 4 4 5 5 4 4 5 8 9 7 6 5 4 3 4 4 4 5 4 2 3 4 4 1 1 2 2 2 2 2 2 2 2 2 1 1 1
3 1 3 2 1 1 2 4 4 4 5 5 6 7 8 7 7 6 5 4 3 3 4 4 5 4 3 2 3 3 2 2 3 3 2 2 2 1 1 1 1 1 1 1
2 2 3 1 1 3 4 3 4 5 7 8 6 7 7 8 7 6 5 4 3 3 3 4 4 4 3 2 2 2 3 3 3 3 2 1 1 1 1 1 0 1 1 2
2 2 3 3 4 3 2 1 4 6 7 7 7 6 6 7 7 6 5 4 4 4 4 4 3 3 2 3 2 1 2 3 3 2 1 1 1 1 1 1 1 3 2 1
Wind_Direction
279 81 247 242 221 214 226 242 269 263 220 125 154 170 183 177 143 145 156 162 162 165 164 158 155 147 140 134 130 127 119 118 113 104 100 95 89 78 63 65 69 76 77 78
345 266 244 242 251 229 229 230 264 332 118 116 149 185 198 160 163 164 165 172 171 158 156 157 155 152 147 145 138 129 128 128 123 128 127 121 118 104 95 57 53 63 71 72
223 248 252 246 250 247 248 206 201 169 126 72 104 355 316 225 172 174 173 169 170 170 166 166 162 164 155 150 149 143 137 131 125 117 103 93 74 57 48 47 50 53 69 69
245 251 257 261 257 232 257 228 192 180 138 192 146 206 283 243 237 201 182 172 177 175 170 172 169 165 162 155 145 135 134 126 121 117 117 120 119 114 122 112 83 63 63 69
253 248 246 257 253 233 239 231 172 153 124 86 35 131 280 286 219 213 189 179 178 173 174 174 171 164 158 152 144 137 130 124 122 123 129 125 119 123 111 94 87 72 53 61
254 256 229 236 257 243 238 39 40 55 73 62 242 149 261 239 223 211 187 171 174 168 159 162 159 151 150 146 141 139 132 127 125 125 128 130 131 126 116 111 110 95 65 55
290 281 259 237 282 305 69 85 32 5 15 261 251 131 244 247 223 179 177 171 169 163 157 154 157 162 157 151 149 145 139 133 135 130 130 136 140 138 140 148 144 132 107 82
239 282 263 218 193 213 214 136 154 189 207 269 328 242 266 259 180 145 151 155 159 159 166 167 169 170 162 158 155 152 150 148 148 142 140 136 136 137 139 145 145 150 155 157
198 253 276 252 208 160 175 183 165 136 131 102 293 298 318 343 63 128 141 136 151 159 165 162 166 163 162 162 162 159 155 152 154 153 139 129 134 134 139 141 140 142 140 126
174 245 300 309 12 313 166 156 90 105 133 150 295 257 223 236 218 171 164 161 165 155 158 156 157 160 163 162 158 154 155 159 159 152 150 143 140 136 133 131 134 138 137 114
152 163 306 350 186 225 58 74 103 116 147 147 189 263 223 190 195 177 175 172 170 157 162 162 157 158 153 151 153 153 155 150 150 153 147 141 143 141 133 136 146 150 140 131
163 132 254 273 267 210 158 160 138 141 210 143 149 258 267 184 178 162 171 162 148 154 157 154 147 143 145 149 158 160 162 160 163 158 147 148 147 143 143 152 159 151 148 158
140 115 80 337 336 350 38 126 139 133 120 139 149 240 272 181 156 154 151 148 138 140 138 137 135 141 149 147 151 157 160 160 155 146 145 147 152 155 164 171 164 153 146 144
122 117 154 190 225 251 305 318 87 107 127 169 188 194 219 203 178 154 136 131 126 130 135 139 143 145 145 144 149 156 154 147 142 140 145 153 167 172 180 173 157 149 148 146
104 131 178 208 216 139 302 282 202 144 164 163 187 184 205 193 182 166 143 129 118 115 122 136 143 142 136 135 141 146 142 140 143 142 153 175 177 161 151 153 153 142 147 155
77 117 77 350 27 61 20 331 227 128 135 139 139 187 215 169 142 128 127 122 118 124 128 126 124 130 132 134 136 135 139 146 144 147 162 170 163 155 156 159 147 137 139 140
68 103 93 277 319 47 347 312 88 73 86 146 167 197 150 120 127 139 142 135 134 136 130 132 136 136 143 149 147 150 156 145 138 146 156 165 171 172 180 171 150 160 161 142
130 107 121 124 55 182 243 216 110 92 57 83 130 148 142 134 127 119 139 142 137 139 144 145 140 134 137 140 140 144 144 145 144 152 165 170 167 174 170 154 168 185 168 162
140 134 117 117 150 246 287 285 145 120 43 42 126 130 127 116 89 62 77 135 148 153 153 150 141 139 134 141 137 129 128 146 151 161 174 181 175 173 166 169 195 185 168 178
68 100 115 126 148 211 249 282 153 106 88 307 126 134 140 119 110 197 181 114 112 111 123 127 127 119 118 138 131 119 128 130 173 187 187 180 173 171 185 199 196 174 163 186
25 34 108 148 177 251 268 289 74 112 209 216 148 142 135 137 161 164 127 97 98 105 115 122 116 119 139 132 111 112 129 160 205 184 160 165 169 178 180 167 127 119 109 195
144 118 162 135 156 250 293 48 122 186 182 143 135 131 125 119 112 115 114 109 100 98 103 112 118 128 129 121 118 115 128 171 120 100 93 90 113 139 119 117 102 103 122 119
143 181 174 173 202 234 272 128 151 140 121 120 120 124 127 119 115 122 125 128 119 110 117 121 125 124 112 116 123 129 148 123 111 94 95 107 95 78 105 128 137 137 140 134
330 34 100 82 330 356 66 93 91 103 109 111 119 122 120 123 127 127 124 123 120 117 123 131 129 125 123 120 127 130 131 123 113 105 102 104 110 93 66 75 110 149 174 171
274 31 73 70 311 46 36 72 95 83 94 99 100 112 124 125 124 131 131 131 127 115 107 117 131 131 128 112 111 119 128 129 125 122 116 109 115 126 91 63 90 184 225 204
279 148 140 206 227 164 219 177 100 102 103 105 105 100 113 125 133 131 133 137 132 121 114 109 109 114 116 107 97 118 138 129 129 125 129 153 162 168 142 122 20 14 5 354